User: anonymous   Login
Location: �clusier
(49.9361°N, 2.7869°E)
Time: 21:04:10
(UTC+00:00)
Language:

Meteor 2-6 Rocket - Orbit

View from above orbital plane
View from above orbital plane
View from above satellite
View from above satellite

Ground track
Ground track

The orbit data is extracted from the following two-line orbital elements,

1 11963U 80073B   22024.26114077  .00000102  00000-0  49474-4 0  9991
2 11963  81.2788 293.9195 0075527 357.9996   2.0860 14.09752773127256
Epoch (UTC): 24 January 2022 06:16:02
Eccentricity: 0.0075527
inclination: 81.2788°
perigee height: 805 km
apogee height: 915 km
right ascension of ascending node: 293.9195°
argument of perigee: 357.9996°
revolutions per day: 14.09752773
mean anomaly at epoch: 2.0860°
orbit number at epoch: 12725

The dashed part of the orbit path shows where the satellite is in the earth's shadow,  

DLR